Change the Weather History Date:

Sunday, March 30, 2014

  Actual Average Record
Temperature  
Mean Temperature 63 °F -  
Max Temperature 79 °F 58 °F 86 °F (1968)
Min Temperature 48 °F 33 °F 2 °F (1987)
Degree Days  
Heating Degree Days 2    
Growing Degree Days 13 (Base 50)    
Moisture  
Dew Point 31 °F    
Average Humidity 31    
Maximum Humidity 44    
Minimum Humidity 19    
Precipitation  
Precipitation 0.00 in - - ()
Sea Level Pressure  
Sea Level Pressure 29.75 in    
Wind  
Wind Speed 27 mph (South)    
Max Wind Speed 32 mph    
Max Gust Speed 43 mph    
Visibility 10 miles    
Events      
Averages and records for this station are not official NWS values.
T = Trace of Precipitation, MM = Missing Value Source: NWS Daily Summary

Daily Weather History Graph

Daily Weather History Graph

Search for Another Location

Airport or City:

Trip Planner

Search our weather history database for the weather conditions in past years. The results will help you decide how hot, cold, wet, or windy it might be!

Date:

Astronomy

Mar. 30, 2014 Rise Set
Actual Time 7:22 AM CDT 7:56 PM CDT
Civil Twilight 6:56 AM CDT 8:23 PM CDT
Nautical Twilight 6:24 AM CDT 8:55 PM CDT
Astronomical Twilight 5:52 AM CDT 9:27 PM CDT
Moon 7:09 AM CDT (3/30) 8:11 PM CDT (3/30)
Length of Visible Light 13h 27m
Length of Day
12h 34m
Waning Crescent, 0% of the Moon is Illuminated
Mar 30
Waning Crescent
Mar 30
New
Apr 7
First Quarter
Apr 15
Full
Apr 22
Last Quarter

Hourly Weather History & Observations

Time (CDT) Temp. Dew Point Humidity Pressure Visibility Wind Dir Wind Speed Gust Speed Precip Events Conditions
12:53 AM 52.0 °F 25.0 °F 35% 30.01 in 10.0 mi South 24.2 mph 31.1 mph N/A   Clear
1:53 AM 52.0 °F 26.1 °F 37% 29.99 in 10.0 mi South 25.3 mph - N/A   Clear
2:53 AM 50.0 °F 26.1 °F 39% 29.96 in 10.0 mi South 25.3 mph - N/A   Clear
3:53 AM 48.9 °F 27.0 °F 43% 29.94 in 10.0 mi South 19.6 mph 26.5 mph N/A   Clear
4:53 AM 48.9 °F 28.0 °F 44% 29.90 in 10.0 mi South 21.9 mph - N/A   Clear
5:53 AM 50.0 °F 28.9 °F 44% 29.87 in 10.0 mi South 28.8 mph 34.5 mph N/A   Clear
6:53 AM 51.1 °F 28.9 °F 43% 29.86 in 10.0 mi South 31.1 mph 38.0 mph N/A   Clear
7:53 AM 51.1 °F 28.9 °F 43% 29.86 in 10.0 mi South 28.8 mph 36.8 mph N/A   Clear
8:53 AM 54.0 °F 30.0 °F 40% 29.85 in 10.0 mi South 28.8 mph 39.1 mph N/A   Clear
9:53 AM 60.1 °F 28.9 °F 31% 29.82 in 10.0 mi South 31.1 mph 38.0 mph N/A   Clear
10:53 AM 64.9 °F 28.9 °F 26% 29.81 in 10.0 mi South 28.8 mph 39.1 mph N/A   Clear
11:53 AM 69.1 °F 30.0 °F 23% 29.79 in 10.0 mi SW 32.2 mph 39.1 mph N/A   Clear
12:53 PM 72.0 °F 30.9 °F 22% 29.75 in 10.0 mi SSW 27.6 mph 41.4 mph N/A   Clear
1:53 PM 73.0 °F 32.0 °F 22% 29.74 in 10.0 mi South 25.3 mph 34.5 mph N/A   Clear
2:53 PM 75.9 °F 33.1 °F 21% 29.70 in 10.0 mi South 29.9 mph 39.1 mph N/A   Clear
3:53 PM 78.1 °F 33.1 °F 19% 29.67 in 10.0 mi South 25.3 mph 36.8 mph N/A   Clear
4:53 PM 77.0 °F 34.0 °F 21% 29.63 in 10.0 mi South 26.5 mph 34.5 mph N/A   Clear
5:53 PM 75.9 °F 34.0 °F 22% 29.60 in 10.0 mi SSE 29.9 mph 39.1 mph N/A   Clear
6:53 PM 73.0 °F 37.0 °F 27% 29.59 in 10.0 mi SSE 27.6 mph 34.5 mph N/A   Clear
7:53 PM 71.1 °F 37.0 °F 29% 29.58 in 10.0 mi South 27.6 mph 38.0 mph N/A   Clear
8:53 PM 69.1 °F 37.0 °F 31% 29.57 in 10.0 mi SSE 28.8 mph 35.7 mph N/A   Clear
9:53 PM 68.0 °F 35.1 °F 30% 29.56 in 10.0 mi South 32.2 mph 42.6 mph N/A   Clear
10:53 PM 66.9 °F 33.1 °F 28% 29.54 in 10.0 mi South 29.9 mph 42.6 mph N/A   Clear
11:53 PM 66.0 °F 30.9 °F 27% 29.52 in 10.0 mi South 32.2 mph 42.6 mph N/A   Clear